QPF
0.00 0.01 0.00 0.02 0.02 0.01 0.03 0.03 0.03 0.04 0.03 0.03 0.02 0.02 0.02 0.02 0.01 0.01 0.01 0.01 0.02 0.02 0.02 0.02 0.02 0.03 0.03 0.02 0.02 0.01 0.01 0.01 0.01 0.01 0.00 0.00 0.01 0.00 0.00 0.00 0.00 0.00 0.00
0.00 0.00 0.00 0.02 0.01 0.01 0.02 0.04 0.03 0.04 0.03 0.03 0.02 0.02 0.02 0.02 0.02 0.02 0.02 0.01 0.02 0.02 0.02 0.02 0.02 0.02 0.02 0.01 0.01 0.01 0.00 0.00 0.01 0.00 0.00 0.01 0.01 0.01 0.00 0.00 0.00 0.01 0.00
0.00 0.01 0.01 0.01 0.01 0.01 0.02 0.03 0.03 0.03 0.02 0.04 0.03 0.02 0.02 0.02 0.02 0.02 0.01 0.01 0.01 0.01 0.02 0.02 0.01 0.01 0.01 0.01 0.01 0.00 0.00 0.00 0.00 0.00 0.00 0.01 0.01 0.01 0.01 0.00 0.00 0.00 0.00
0.00 0.01 0.01 0.01 0.01 0.01 0.01 0.02 0.02 0.02 0.02 0.03 0.04 0.03 0.02 0.02 0.02 0.02 0.01 0.02 0.01 0.01 0.01 0.01 0.01 0.01 0.01 0.01 0.01 0.00 0.00 0.00 0.00 0.00 0.00 0.01 0.01 0.01 0.00 0.00 0.00 0.00 0.00
0.00 0.01 0.01 0.01 0.01 0.01 0.02 0.03 0.02 0.02 0.03 0.03 0.03 0.02 0.02 0.02 0.03 0.03 0.02 0.01 0.01 0.01 0.01 0.01 0.01 0.01 0.01 0.01 0.00 0.00 0.01 0.00 0.00 0.00 0.00 0.01 0.01 0.01 0.00 0.00 0.00 0.00 0.00
0.00 0.01 0.01 0.01 0.01 0.02 0.03 0.03 0.03 0.03 0.03 0.02 0.02 0.02 0.02 0.03 0.03 0.03 0.02 0.02 0.01 0.02 0.02 0.01 0.01 0.01 0.01 0.00 0.00 0.00 0.00 0.01 0.00 0.00 0.01 0.01 0.01 0.01 0.01 0.01 0.01 0.01 0.01
0.01 0.01 0.01 0.01 0.02 0.03 0.03 0.03 0.03 0.03 0.04 0.03 0.02 0.02 0.02 0.02 0.02 0.02 0.02 0.01 0.01 0.01 0.02 0.02 0.01 0.01 0.01 0.00 0.00 0.00 0.00 0.00 0.00 0.01 0.01 0.01 0.01 0.01 0.01 0.01 0.01 0.01 0.01
0.01 0.01 0.01 0.01 0.02 0.03 0.04 0.04 0.04 0.03 0.03 0.03 0.02 0.02 0.02 0.02 0.02 0.01 0.01 0.01 0.01 0.01 0.01 0.01 0.01 0.00 0.00 0.01 0.01 0.00 0.00 0.00 0.01 0.01 0.02 0.02 0.02 0.01 0.01 0.00 0.01 0.01 0.01
0.02 0.02 0.01 0.01 0.02 0.03 0.04 0.04 0.04 0.03 0.03 0.03 0.02 0.02 0.01 0.01 0.01 0.01 0.01 0.01 0.01 0.01 0.01 0.01 0.01 0.00 0.00 0.00 0.01 0.00 0.00 0.00 0.01 0.01 0.01 0.02 0.01 0.02 0.02 0.01 0.01 0.01 0.01
0.04 0.04 0.03 0.03 0.02 0.03 0.03 0.03 0.03 0.02 0.02 0.02 0.01 0.01 0.01 0.00 0.01 0.01 0.01 0.01 0.01 0.01 0.01 0.01 0.01 0.02 0.01 0.00 0.01 0.00 0.00 0.00 0.00 0.00 0.01 0.01 0.01 0.01 0.02 0.01 0.01 0.01 0.01
0.05 0.07 0.05 0.04 0.03 0.04 0.04 0.02 0.02 0.02 0.02 0.01 0.00 0.00 0.00 0.01 0.02 0.02 0.01 0.01 0.01 0.01 0.01 0.01 0.01 0.01 0.01 0.00 0.00 0.00 0.00 0.00 0.00 0.00 0.00 0.00 0.00 0.01 0.01 0.01 0.00 0.00 0.01
0.04 0.06 0.06 0.05 0.04 0.05 0.04 0.04 0.04 0.03 0.02 0.02 0.01 0.01 0.02 0.03 0.03 0.02 0.02 0.00 0.00 0.00 0.00 0.00 0.00 0.01 0.01 0.01 0.01 0.00 0.01 0.01 0.00 0.00 0.00 0.00 0.00 0.00 0.01 0.01 0.01 0.01 0.01
0.03 0.04 0.06 0.06 0.04 0.05 0.06 0.05 0.06 0.05 0.04 0.03 0.03 0.03 0.03 0.03 0.03 0.03 0.03 0.01 0.02 0.01 0.01 0.01 0.01 0.02 0.03 0.03 0.03 0.02 0.02 0.02 0.01 0.01 0.00 0.00 0.00 0.00 0.01 0.01 0.00 0.01 0.01
0.02 0.03 0.05 0.07 0.06 0.06 0.06 0.04 0.04 0.04 0.03 0.03 0.04 0.03 0.03 0.04 0.05 0.05 0.05 0.03 0.03 0.03 0.04 0.05 0.05 0.05 0.04 0.04 0.03 0.02 0.02 0.02 0.01 0.01 0.01 0.00 0.00 0.01 0.01 0.01 0.01 0.01 0.01
0.02 0.03 0.04 0.06 0.07 0.07 0.08 0.05 0.03 0.03 0.03 0.03 0.03 0.03 0.03 0.04 0.04 0.03 0.03 0.02 0.02 0.02 0.03 0.03 0.03 0.02 0.02 0.02 0.02 0.01 0.01 0.01 0.01 0.01 0.01 0.00 0.00 0.00 0.00 0.01 0.01 0.02 0.02
0.02 0.03 0.04 0.06 0.06 0.06 0.07 0.07 0.06 0.04 0.03 0.03 0.03 0.02 0.02 0.02 0.02 0.02 0.01 0.01 0.01 0.01 0.01 0.01 0.00 0.01 0.01 0.01 0.01 0.01 0.01 0.01 0.00 0.00 0.01 0.00 0.00 0.00 0.00 0.00 0.01 0.01 0.02
0.02 0.03 0.04 0.05 0.05 0.05 0.05 0.05 0.05 0.05 0.04 0.03 0.02 0.02 0.02 0.02 0.02 0.01 0.01 0.01 0.00 0.01 0.01 0.01 0.00 0.00 0.00 0.00 0.00 0.00 0.01 0.00 0.00 0.00 0.00 0.01 0.00 0.00 0.00 0.00 0.00 0.00 0.01
0.04 0.03 0.04 0.04 0.03 0.04 0.04 0.05 0.04 0.03 0.03 0.02 0.02 0.02 0.02 0.02 0.02 0.02 0.01 0.01 0.00 0.00 0.00 0.00 0.00 0.00 0.00 0.00 0.00 0.00 0.00 0.00 0.00 0.00 0.00 0.00 0.00 0.00 0.00 0.00 0.00 0.00 0.00
0.03 0.03 0.03 0.03 0.04 0.04 0.03 0.04 0.04 0.04 0.03 0.02 0.01 0.02 0.02 0.02 0.02 0.02 0.01 0.01 0.00 0.00 0.00 0.00 0.00 0.00 0.00 0.00 0.00 0.00 0.00 0.00 0.00 0.00 0.00 0.00 0.00 0.00 0.00 0.00 0.00 0.00 0.00
0.04 0.03 0.03 0.04 0.04 0.03 0.02 0.02 0.03 0.03 0.03 0.02 0.01 0.01 0.01 0.02 0.02 0.02 0.01 0.01 0.01 0.01 0.00 0.00 0.00 0.00 0.00 0.00 0.00 0.00 0.00 0.00 0.00 0.00 0.00 0.00 0.00 0.00 0.00 0.00 0.00 0.00 0.00
0.02 0.02 0.03 0.03 0.03 0.02 0.02 0.02 0.01 0.01 0.01 0.02 0.03 0.02 0.01 0.01 0.01 0.02 0.01 0.01 0.01 0.00 0.01 0.00 0.00 0.00 0.00 0.00 0.00 0.00 0.00 0.00 0.00 0.00 0.00 0.00 0.00 0.00 0.00 0.00 0.00 0.00 0.01
0.02 0.02 0.01 0.02 0.02 0.02 0.02 0.01 0.01 0.01 0.01 0.02 0.03 0.04 0.04 0.03 0.01 0.01 0.02 0.02 0.01 0.01 0.00 0.00 0.00 0.00 0.00 0.00 0.00 0.01 0.01 0.00 0.00 0.00 0.00 0.00 0.00 0.00 0.00 0.00 0.00 0.00 0.00
0.02 0.02 0.02 0.02 0.01 0.01 0.01 0.01 0.01 0.01 0.01 0.01 0.01 0.01 0.03 0.04 0.04 0.03 0.02 0.02 0.02 0.01 0.01 0.00 0.00 0.00 0.00 0.00 0.00 0.01 0.01 0.01 0.01 0.00 0.00 0.00 0.00 0.00 0.00 0.00 0.00 0.00 0.00
0.02 0.02 0.02 0.02 0.01 0.01 0.00 0.01 0.01 0.01 0.01 0.01 0.01 0.01 0.01 0.01 0.01 0.02 0.03 0.03 0.03 0.02 0.01 0.01 0.00 0.00 0.00 0.00 0.00 0.00 0.00 0.01 0.01 0.01 0.00 0.00 0.00 0.00 0.00 0.00 0.00 0.00 0.00
0.01 0.01 0.01 0.02 0.01 0.01 0.02 0.02 0.01 0.01 0.01 0.01 0.01 0.01 0.00 0.00 0.00 0.00 0.01 0.01 0.03 0.03 0.04 0.04 0.02 0.01 0.00 0.00 0.00 0.00 0.00 0.00 0.00 0.00 0.00 0.00 0.00 0.00 0.00 0.00 0.01 0.00 0.00
0.01 0.01 0.00 0.01 0.01 0.02 0.01 0.01 0.01 0.01 0.00 0.00 0.00 0.00 0.00 0.00 0.00 0.00 0.00 0.00 0.00 0.01 0.01 0.03 0.04 0.03 0.02 0.02 0.01 0.01 0.01 0.01 0.01 0.01 0.01 0.01 0.00 0.00 0.00 0.00 0.00 0.00 0.00
MSLP
1008.83 1008.93 1009.14 1009.49 1009.94 1010.46 1011.00 1011.51 1011.97 1012.34 1012.64 1012.90 1013.14 1013.39 1013.66 1013.95 1014.25 1014.54 1014.80 1015.01 1015.19 1015.33 1015.47 1015.62 1015.78 1015.94 1016.10 1016.22 1016.29 1016.29 1016.22 1016.10 1015.96 1015.84 1015.75 1015.72 1015.75 1015.82 1015.91 1015.99 1016.04 1016.06 1016.04
1008.50 1008.68 1008.99 1009.42 1009.95 1010.53 1011.10 1011.61 1012.05 1012.41 1012.72 1012.98 1013.25 1013.55 1013.87 1014.21 1014.55 1014.86 1015.13 1015.34 1015.51 1015.65 1015.78 1015.93 1016.09 1016.25 1016.38 1016.46 1016.48 1016.43 1016.31 1016.15 1016.00 1015.87 1015.81 1015.82 1015.88 1015.97 1016.07 1016.16 1016.20 1016.21 1016.18
1008.15 1008.42 1008.83 1009.36 1009.97 1010.60 1011.19 1011.72 1012.15 1012.51 1012.81 1013.09 1013.39 1013.72 1014.08 1014.45 1014.81 1015.13 1015.39 1015.59 1015.75 1015.88 1016.02 1016.16 1016.32 1016.46 1016.57 1016.63 1016.60 1016.51 1016.35 1016.18 1016.03 1015.93 1015.90 1015.94 1016.04 1016.17 1016.29 1016.38 1016.43 1016.44 1016.42
1007.83 1008.18 1008.68 1009.31 1009.99 1010.67 1011.30 1011.83 1012.26 1012.61 1012.92 1013.21 1013.53 1013.89 1014.28 1014.67 1015.04 1015.36 1015.61 1015.80 1015.95 1016.08 1016.21 1016.35 1016.50 1016.64 1016.73 1016.76 1016.71 1016.59 1016.43 1016.26 1016.12 1016.05 1016.07 1016.16 1016.30 1016.45 1016.60 1016.70 1016.76 1016.78 1016.77
1007.58 1008.01 1008.59 1009.29 1010.04 1010.76 1011.41 1011.95 1012.38 1012.73 1013.04 1013.36 1013.70 1014.08 1014.49 1014.90 1015.28 1015.59 1015.84 1016.02 1016.16 1016.28 1016.42 1016.56 1016.71 1016.84 1016.92 1016.93 1016.87 1016.74 1016.59 1016.44 1016.33 1016.30 1016.36 1016.49 1016.66 1016.84 1017.00 1017.11 1017.18 1017.21 1017.22
1007.45 1007.93 1008.58 1009.33 1010.12 1010.87 1011.53 1012.07 1012.51 1012.86 1013.19 1013.52 1013.89 1014.30 1014.73 1015.16 1015.54 1015.86 1016.10 1016.28 1016.42 1016.55 1016.68 1016.83 1016.97 1017.10 1017.17 1017.18 1017.12 1017.00 1016.87 1016.75 1016.68 1016.70 1016.79 1016.95 1017.13 1017.32 1017.48 1017.60 1017.67 1017.71 1017.74
1007.44 1007.96 1008.65 1009.43 1010.24 1011.00 1011.66 1012.20 1012.64 1013.00 1013.35 1013.71 1014.11 1014.55 1015.01 1015.46 1015.86 1016.18 1016.43 1016.61 1016.76 1016.89 1017.03 1017.17 1017.31 1017.43 1017.50 1017.51 1017.46 1017.36 1017.26 1017.18 1017.16 1017.21 1017.33 1017.50 1017.69 1017.87 1018.01 1018.12 1018.18 1018.23 1018.28
1007.55 1008.10 1008.80 1009.59 1010.39 1011.14 1011.79 1012.33 1012.78 1013.16 1013.53 1013.93 1014.37 1014.84 1015.33 1015.80 1016.21 1016.55 1016.81 1017.01 1017.16 1017.30 1017.44 1017.58 1017.71 1017.82 1017.88 1017.89 1017.85 1017.79 1017.72 1017.68 1017.70 1017.79 1017.93 1018.10 1018.28 1018.43 1018.55 1018.63 1018.68 1018.73 1018.78
1007.75 1008.31 1009.01 1009.79 1010.58 1011.31 1011.94 1012.48 1012.93 1013.34 1013.75 1014.18 1014.66 1015.17 1015.68 1016.17 1016.60 1016.95 1017.22 1017.43 1017.59 1017.73 1017.86 1018.00 1018.12 1018.21 1018.26 1018.28 1018.26 1018.22 1018.19 1018.20 1018.26 1018.37 1018.52 1018.69 1018.84 1018.97 1019.05 1019.10 1019.13 1019.17 1019.22
1008.00 1008.57 1009.27 1010.03 1010.79 1011.49 1012.11 1012.64 1013.11 1013.54 1013.98 1014.45 1014.96 1015.50 1016.03 1016.53 1016.97 1017.32 1017.60 1017.82 1017.98 1018.13 1018.25 1018.37 1018.48 1018.56 1018.60 1018.62 1018.61 1018.61 1018.62 1018.67 1018.76 1018.90 1019.06 1019.22 1019.35 1019.44 1019.49 1019.51 1019.52 1019.55 1019.60
1008.28 1008.86 1009.55 1010.28 1011.01 1011.68 1012.29 1012.82 1013.30 1013.76 1014.23 1014.73 1015.27 1015.81 1016.35 1016.85 1017.28 1017.64 1017.92 1018.14 1018.31 1018.45 1018.57 1018.68 1018.77 1018.83 1018.87 1018.89 1018.91 1018.93 1018.98 1019.07 1019.21 1019.37 1019.53 1019.68 1019.80 1019.86 1019.88 1019.88 1019.87 1019.87 1019.92
1008.55 1009.15 1009.83 1010.54 1011.24 1011.89 1012.48 1013.01 1013.51 1013.99 1014.49 1015.01 1015.55 1016.09 1016.62 1017.10 1017.52 1017.87 1018.15 1018.37 1018.54 1018.69 1018.80 1018.90 1018.98 1019.04 1019.08 1019.12 1019.15 1019.21 1019.30 1019.43 1019.59 1019.78 1019.95 1020.10 1020.20 1020.24 1020.24 1020.22 1020.19 1020.19 1020.22
1008.79 1009.41 1010.10 1010.80 1011.48 1012.11 1012.69 1013.22 1013.73 1014.23 1014.73 1015.25 1015.78 1016.30 1016.81 1017.26 1017.67 1018.01 1018.28 1018.51 1018.69 1018.85 1018.97 1019.08 1019.16 1019.23 1019.28 1019.33 1019.40 1019.49 1019.62 1019.78 1019.97 1020.17 1020.35 1020.49 1020.58 1020.61 1020.60 1020.57 1020.54 1020.52 1020.54
1008.98 1009.65 1010.35 1011.05 1011.71 1012.34 1012.91 1013.44 1013.95 1014.45 1014.95 1015.45 1015.96 1016.45 1016.91 1017.34 1017.72 1018.05 1018.33 1018.58 1018.78 1018.96 1019.11 1019.24 1019.35 1019.43 1019.51 1019.59 1019.69 1019.82 1019.98 1020.17 1020.38 1020.58 1020.76 1020.90 1020.98 1021.01 1020.99 1020.96 1020.92 1020.90 1020.90
1009.12 1009.83 1010.56 1011.26 1011.93 1012.55 1013.13 1013.66 1014.17 1014.66 1015.14 1015.61 1016.08 1016.53 1016.95 1017.35 1017.71 1018.04 1018.34 1018.61 1018.85 1019.07 1019.26 1019.43 1019.58 1019.70 1019.82 1019.94 1020.08 1020.24 1020.42 1020.63 1020.85 1021.05 1021.22 1021.34 1021.41 1021.43 1021.42 1021.38 1021.34 1021.31 1021.30
1009.19 1009.95 1010.71 1011.44 1012.12 1012.75 1013.33 1013.86 1014.37 1014.84 1015.30 1015.74 1016.16 1016.56 1016.94 1017.31 1017.66 1018.00 1018.33 1018.64 1018.93 1019.20 1019.45 1019.67 1019.87 1020.04 1020.21 1020.37 1020.55 1020.74 1020.95 1021.17 1021.38 1021.56 1021.71 1021.81 1021.86 1021.87 1021.85 1021.81 1021.78 1021.74 1021.72
1009.19 1009.99 1010.79 1011.54 1012.25 1012.90 1013.49 1014.04 1014.54 1015.00 1015.43 1015.83 1016.20 1016.56 1016.92 1017.26 1017.61 1017.97 1018.33 1018.68 1019.03 1019.36 1019.67 1019.94 1020.20 1020.43 1020.64 1020.86 1021.08 1021.29 1021.52 1021.73 1021.92 1022.08 1022.19 1022.26 1022.29 1022.28 1022.25 1022.22 1022.18 1022.15 1022.11
1009.09 1009.94 1010.77 1011.56 1012.30 1012.98 1013.61 1014.17 1014.68 1015.13 1015.54 1015.91 1016.25 1016.57 1016.90 1017.23 1017.59 1017.96 1018.35 1018.75 1019.15 1019.53 1019.89 1020.22 1020.52 1020.80 1021.07 1021.32 1021.58 1021.82 1022.05 1022.25 1022.42 1022.54 1022.61 1022.64 1022.64 1022.61 1022.58 1022.54 1022.51 1022.48 1022.44
1008.91 1009.79 1010.65 1011.48 1012.26 1012.98 1013.64 1014.23 1014.76 1015.23 1015.63 1015.98 1016.29 1016.60 1016.91 1017.24 1017.59 1017.98 1018.40 1018.83 1019.26 1019.68 1020.07 1020.44 1020.78 1021.10 1021.41 1021.70 1021.98 1022.25 1022.48 1022.67 1022.81 1022.89 1022.92 1022.91 1022.88 1022.83 1022.79 1022.75 1022.73 1022.70 1022.66
1008.66 1009.55 1010.43 1011.28 1012.10 1012.87 1013.57 1014.21 1014.78 1015.26 1015.68 1016.03 1016.34 1016.64 1016.94 1017.27 1017.64 1018.04 1018.47 1018.92 1019.36 1019.79 1020.20 1020.59 1020.95 1021.29 1021.62 1021.94 1022.24 1022.52 1022.75 1022.93 1023.04 1023.09 1023.09 1023.04 1022.98 1022.91 1022.86 1022.83 1022.81 1022.80 1022.76
1008.36 1009.24 1010.11 1010.98 1011.82 1012.63 1013.39 1014.08 1014.70 1015.23 1015.68 1016.05 1016.38 1016.69 1017.00 1017.34 1017.71 1018.11 1018.55 1018.99 1019.43 1019.86 1020.26 1020.64 1021.00 1021.35 1021.69 1022.02 1022.34 1022.62 1022.85 1023.02 1023.12 1023.14 1023.11 1023.03 1022.95 1022.87 1022.81 1022.78 1022.78 1022.77 1022.75
1008.04 1008.88 1009.73 1010.58 1011.43 1012.27 1013.08 1013.83 1014.51 1015.10 1015.59 1016.01 1016.38 1016.71 1017.05 1017.40 1017.78 1018.19 1018.62 1019.05 1019.48 1019.88 1020.26 1020.62 1020.96 1021.30 1021.64 1021.97 1022.29 1022.58 1022.81 1022.98 1023.06 1023.07 1023.02 1022.93 1022.82 1022.73 1022.67 1022.64 1022.64 1022.65 1022.64
1007.76 1008.52 1009.30 1010.11 1010.95 1011.80 1012.64 1013.44 1014.18 1014.84 1015.40 1015.89 1016.30 1016.68 1017.05 1017.43 1017.82 1018.24 1018.67 1019.09 1019.49 1019.87 1020.22 1020.55 1020.87 1021.19 1021.51 1021.84 1022.16 1022.45 1022.68 1022.85 1022.93 1022.93 1022.87 1022.77 1022.66 1022.56 1022.49 1022.46 1022.45 1022.46 1022.46
1007.54 1008.18 1008.86 1009.59 1010.39 1011.23 1012.09 1012.93 1013.73 1014.45 1015.09 1015.64 1016.12 1016.56 1016.97 1017.39 1017.82 1018.25 1018.68 1019.10 1019.49 1019.84 1020.17 1020.47 1020.76 1021.06 1021.37 1021.69 1022.00 1022.28 1022.52 1022.69 1022.78 1022.78 1022.72 1022.62 1022.50 1022.39 1022.31 1022.26 1022.25 1022.24 1022.23
1007.40 1007.90 1008.44 1009.07 1009.80 1010.60 1011.46 1012.33 1013.17 1013.96 1014.66 1015.28 1015.82 1016.32 1016.80 1017.26 1017.73 1018.19 1018.64 1019.07 1019.46 1019.81 1020.12 1020.41 1020.68 1020.96 1021.25 1021.55 1021.85 1022.13 1022.37 1022.54 1022.64 1022.65 1022.60 1022.50 1022.38 1022.26 1022.16 1022.09 1022.05 1022.01 1021.98
1007.36 1007.69 1008.09 1008.59 1009.22 1009.97 1010.81 1011.68 1012.55 1013.38 1014.13 1014.81 1015.42 1015.98 1016.51 1017.02 1017.54 1018.05 1018.53 1018.99 1019.40 1019.76 1020.08 1020.36 1020.62 1020.88 1021.16 1021.44 1021.73 1022.00 1022.24 1022.42 1022.53 1022.56 1022.52 1022.43 1022.31 1022.18 1022.06 1021.95 1021.87 1021.80 1021.72
Thickness
5765 5764 5762 5760 5759 5757 5756 5754 5753 5751 5750 5749 5748 5747 5746 5744 5743 5743 5742 5741 5740 5740 5739 5738 5738 5737 5736 5735 5734 5733 5733 5732 5731 5730 5730 5729 5728 5727 5726 5726 5725 5724 5723
5768 5763 5760 5758 5756 5754 5753 5751 5750 5748 5747 5746 5745 5743 5742 5741 5740 5739 5738 5737 5737 5736 5736 5735 5734 5733 5732 5731 5730 5730 5729 5729 5728 5727 5727 5726 5725 5724 5723 5722 5721 5720 5719
5766 5760 5757 5755 5753 5751 5749 5748 5746 5745 5744 5742 5741 5740 5739 5738 5736 5736 5735 5734 5733 5732 5732 5731 5730 5729 5728 5727 5726 5726 5725 5725 5725 5724 5723 5722 5721 5720 5719 5718 5717 5716 5715
5763 5757 5754 5752 5750 5748 5746 5744 5743 5741 5740 5739 5737 5736 5735 5734 5733 5732 5731 5730 5729 5728 5728 5727 5726 5725 5724 5723 5722 5722 5722 5722 5722 5721 5720 5719 5718 5716 5715 5714 5713 5712 5711
5758 5754 5750 5748 5746 5745 5743 5741 5739 5738 5737 5735 5734 5732 5731 5730 5729 5728 5726 5726 5725 5724 5723 5722 5721 5720 5720 5719 5718 5718 5718 5718 5718 5717 5716 5715 5713 5712 5711 5709 5709 5708 5707
5754 5749 5745 5744 5742 5740 5739 5737 5736 5734 5733 5731 5730 5729 5727 5726 5725 5723 5722 5721 5720 5719 5719 5718 5717 5716 5715 5715 5714 5714 5714 5714 5713 5712 5711 5710 5709 5707 5706 5705 5704 5703 5702
5749 5745 5740 5739 5737 5736 5734 5733 5731 5730 5728 5727 5726 5725 5723 5722 5720 5719 5718 5717 5716 5715 5714 5713 5712 5712 5711 5710 5710 5709 5709 5709 5709 5708 5707 5705 5704 5703 5702 5700 5699 5698 5697
5744 5740 5735 5733 5732 5731 5730 5728 5727 5725 5724 5723 5722 5720 5719 5717 5716 5715 5714 5712 5711 5710 5709 5708 5708 5707 5706 5706 5705 5705 5705 5705 5704 5703 5702 5700 5699 5698 5697 5695 5694 5693 5692
5739 5735 5731 5729 5727 5725 5724 5723 5722 5721 5719 5718 5717 5715 5714 5713 5712 5710 5709 5708 5707 5706 5705 5704 5703 5702 5701 5701 5701 5700 5700 5700 5699 5698 5697 5695 5694 5693 5691 5690 5689 5688 5687
5732 5730 5727 5724 5722 5721 5719 5718 5717 5715 5714 5713 5711 5710 5709 5708 5707 5706 5704 5703 5702 5701 5700 5699 5698 5698 5697 5696 5696 5696 5696 5695 5694 5693 5691 5690 5689 5688 5686 5685 5684 5683 5682
5723 5723 5722 5720 5718 5716 5714 5712 5711 5710 5709 5707 5706 5705 5704 5703 5702 5701 5700 5698 5698 5697 5696 5695 5694 5693 5693 5692 5692 5691 5691 5690 5689 5688 5686 5685 5684 5682 5681 5679 5678 5677 5676
5713 5715 5716 5715 5713 5712 5710 5707 5706 5704 5703 5703 5702 5701 5700 5699 5698 5696 5695 5694 5693 5692 5692 5691 5690 5690 5689 5688 5688 5687 5686 5685 5684 5683 5681 5680 5678 5677 5675 5674 5672 5671 5671
5708 5709 5709 5709 5708 5706 5705 5702 5701 5700 5699 5698 5697 5696 5696 5694 5693 5691 5690 5689 5688 5688 5687 5686 5686 5686 5685 5685 5684 5683 5682 5681 5679 5677 5675 5674 5673 5671 5669 5668 5667 5666 5665
5701 5701 5703 5702 5701 5701 5700 5698 5696 5695 5694 5693 5692 5691 5691 5689 5688 5686 5685 5685 5684 5683 5683 5682 5682 5682 5681 5680 5679 5678 5677 5676 5674 5672 5670 5668 5666 5665 5663 5662 5661 5660 5659
5694 5694 5695 5696 5695 5694 5693 5692 5690 5689 5688 5688 5687 5686 5685 5684 5682 5681 5680 5680 5679 5678 5678 5677 5677 5676 5676 5675 5674 5673 5672 5670 5668 5666 5664 5662 5660 5659 5657 5656 5655 5654 5652
5688 5688 5689 5689 5688 5688 5686 5685 5684 5683 5683 5682 5680 5680 5679 5678 5677 5676 5674 5674 5673 5673 5672 5672 5672 5671 5670 5669 5668 5667 5666 5664 5662 5660 5658 5656 5654 5652 5650 5649 5648 5646 5645
5681 5682 5681 5682 5681 5681 5680 5679 5678 5677 5676 5675 5674 5673 5672 5671 5671 5670 5669 5668 5667 5667 5666 5666 5665 5665 5664 5663 5661 5660 5659 5657 5655 5654 5652 5649 5647 5645 5643 5641 5640 5639 5638
5675 5674 5674 5675 5674 5673 5672 5672 5671 5670 5669 5668 5667 5666 5665 5665 5664 5663 5662 5661 5661 5660 5660 5659 5658 5657 5655 5654 5653 5653 5652 5650 5649 5647 5645 5643 5640 5638 5636 5634 5632 5631 5630
5668 5667 5666 5666 5666 5665 5665 5665 5664 5663 5662 5661 5660 5659 5658 5658 5657 5656 5655 5655 5654 5653 5652 5651 5650 5649 5647 5646 5645 5645 5644 5643 5642 5640 5638 5635 5633 5631 5628 5626 5625 5623 5622
5660 5659 5658 5658 5658 5658 5657 5656 5656 5655 5654 5654 5653 5652 5651 5651 5650 5649 5648 5648 5647 5645 5644 5643 5642 5641 5639 5638 5638 5637 5637 5636 5635 5632 5630 5628 5626 5623 5621 5619 5617 5616 5614
5650 5650 5649 5649 5649 5649 5648 5647 5646 5645 5645 5645 5645 5644 5644 5643 5642 5642 5641 5640 5639 5637 5636 5635 5634 5632 5630 5629 5627 5626 5627 5629 5627 5625 5623 5621 5618 5616 5614 5612 5610 5608 5606
5640 5641 5641 5640 5640 5640 5640 5640 5640 5639 5638 5637 5637 5636 5636 5635 5634 5634 5633 5632 5631 5630 5628 5627 5625 5622 5621 5620 5616 5614 5613 5615 5617 5618 5615 5613 5611 5609 5606 5604 5602 5600 5597
5631 5632 5633 5632 5632 5632 5632 5632 5631 5630 5629 5628 5627 5627 5628 5627 5627 5626 5625 5624 5623 5621 5619 5618 5617 5614 5611 5610 5609 5605 5601 5600 5603 5607 5607 5605 5603 5600 5598 5596 5594 5591 5589
5621 5623 5624 5624 5624 5624 5624 5624 5623 5622 5620 5620 5620 5619 5619 5619 5618 5617 5617 5616 5615 5613 5612 5610 5609 5606 5604 5600 5599 5598 5595 5593 5590 5591 5596 5596 5594 5591 5589 5587 5585 5582 5580
5612 5613 5614 5615 5615 5615 5615 5615 5615 5615 5614 5613 5612 5612 5611 5611 5610 5609 5608 5607 5606 5605 5603 5602 5600 5598 5596 5593 5590 5588 5587 5585 5583 5579 5581 5584 5584 5583 5580 5578 5575 5573 5570
5601 5603 5604 5605 5606 5606 5606 5606 5607 5606 5606 5605 5604 5603 5602 5602 5601 5601 5600 5599 5598 5596 5595 5593 5591 5590 5588 5586 5583 5581 5578 5575 5573 5570 5569 5570 5571 5572 5571 5569 5566 5563 5560